Location: Crayja
(6.2254°N, 10.6273°W)
Time: 09:56:55
(UTC+00:00)

STARLINK-1060 - Pass Details

Date: 17 February 2020
Orbit: 548 x 551 km, 53.0° (Epoch: 29 March)

Event Time Altitude Azimuth Distance (km) Brightness Sun altitude
Exits shadow 06:28:24 - 324° (NW) 2,454 6.5 -8.2°
Reaches altitude 10° 06:30:00 10° 324° (NW) 1,816 5.8 -7.8°
Maximum altitude 06:34:07 82° 238° (WSW) 557 3.6 -6.8°
Drops below altitude 10° 06:38:16 10° 148° (SSE) 1,818 7.0 -5.8°
Sets 06:40:30 0° 147° (SSE) 2,712 7.9 -5.2°
